Regional Weather Roundup
Issued by NWS Northern Indiana

Home | Current Version | Previous Version | Graphics & Text | Print | Product List | Glossary On
Versions: 1 2 3 4 5 6 7 8 9 10 11 12 13 14 15 16 17 18 19 20 21 22 23 24 25 26 27 28 29 30 31 32 33 34 35 36 37 38 39 40 41 42 43 44 45 46 47 48 49 50
000
ASUS43 KIWX 051710
RWRIWX

KIWX WEATHER ROUNDUP
NATIONAL WEATHER SERVICE NORTHERN INDIANA
100 PM EDT THU MAY 05 2016

NOTE: "FAIR" INDICATES FEW OR NO CLOUDS BELOW 12,000 FEET WITH NO
SIGNIFICANT WEATHER AND/OR OBSTRUCTIONS TO VISIBILITY.

* THESE STATIONS ARE NOT UNDER NWS QUALITY CONTROL. THEY ALSO MAY NOT
  REPORT WEATHER SUCH AS PRECIPITATION OR FOG.

INZ001>027-051800-
NORTHERN INDIANA

CITY           SKY/WX    TMP DP  RH WIND       PRES   REMARKS
GARY*          PTSUNNY   48  45  87 N12G23    30.04R
VALPARAISO     SUNNY     49  41  74 N14       29.99S
MICHIGAN CITY* CLOUDY    45  45 100 NW9       30.01S
LAPORTE*       SUNNY     51  47  85 NW15      29.99R
KNOX*          MOSUNNY   52  41  66 N13G18    29.97S
SOUTH BEND     SUNNY     55  46  71 NW13      29.97R
ELKHART*       SUNNY     57  50  77 NW7       29.94S
GOSHEN         SUNNY     59  49  69 N14G21    29.92S
MONTICELLO*    PTSUNNY   53  42  66 N10       29.95S
LOGANSPORT*    PTSUNNY   52  46  82 N14       29.94S
ROCHESTER*     SUNNY     59  50  72 N10G16    29.93F
WARSAW*        MOSUNNY   57  46  67 NW10      29.92S
ANGOLA*          N/A     59  46  63 N9        29.89S
FORT WAYNE     MOSUNNY   61  46  57 N16       29.89S
HUNTINGTON*    PTSUNNY   60  46  60 N13G18    29.89S
PERU/GRISSOM   PTSUNNY   56  47  73 N15G21    29.91S
MARION*        PTSUNNY   55  46  73 N9        29.91S

$$
INZ028>050-051800-
CENTRAL INDIANA

CITY           SKY/WX    TMP DP  RH WIND       PRES   REMARKS
LAFAYETTE      CLOUDY    50  43  77 N13       29.96S
KOKOMO*        PTSUNNY   55  46  71 N17       29.91S
MUNCIE*        CLOUDY    57  47  69 N13       29.89R
INDIANAPOLIS   CLOUDY    50  45  83 NW13      29.91R

$$
MIZ043>046-050>051-056>058-064>065-071>073-077>080-051800-
SOUTHWEST LOWER MICHIGAN

CITY           SKY/WX    TMP DP  RH WIND       PRES   REMARKS
BATTLE CREEK   SUNNY     62  45  53 N13G20    29.92S
BENTON HARBOR  MOSUNNY   48  41  76 NW8       29.98S
COLDWATER*     SUNNY     60  47  60 N10G17    29.91R
HILLSDALE*     MOSUNNY   60  39  45 N13G23    29.89S
HOLLAND        SUNNY    N/A N/A N/A W12       29.97S
GRAND RAPIDS   MOSUNNY   63  47  55 NW8       29.95S
KALAMAZOO      SUNNY     61  47  59 N10       29.94S
STURGIS*       SUNNY     59  46  63 N15       29.91S
THREE RIVERS*  FAIR      61  47  60 NW10      29.93S

$$
OHZ001>008-015>018-024>025-051800-
NORTHWEST OHIO

CITY           SKY/WX    TMP DP  RH WIND       PRES   REMARKS
WAUSEON*         N/A     63 N/A N/A NE18G26   29.86S
DEFIANCE       SUNNY     64  44  48 NE13G22   29.86S
FINDLAY        PTSUNNY   57  45  64 NE18      29.83S
TOLEDO EXPRESS PTSUNNY   63  42  46 N13       29.85S
TOLEDO METCALF SUNNY     61  44  53 N15G21    29.86S
LIMA           PTSUNNY   57  50  77 NE15      29.83S

$$
AND FOR LAKE MICHIGAN COASTAL AND OPEN LAKE BUOY OBSERVATIONS

STATION/POSITION TEMP    WIND        PRES    VSBY  WAVE
                 AIR SEA DIR/SP/G                  HT/PER
                 (F)     (DEG/KT/KT) (MB)    (MI)  (FT/S)
CALUMET HARBOR    45     340/ 15/ 20 1016.1R
MICHIGAN CITY     42     340/ 14/ 15   N/A
BURNS HARBOR      43     360/ 12/ 17 1016.9R
SAINT JOSEPH      45     330/ 11/ 12 1015.6S
SOUTH LAKE BUOY   40 40  360/ 16/ 17 1016.0R         4/ 6
4 MI NW BRIDGMAN  43 47                N/A           4/ 7

$$
&&




USA.gov is the U.S. government's official web portal to all federal, state and local government web resources and services.